FW6320 Weather Reports


Display with metric or nautical units.
time (UTC)temp
F
wind
direction
speed
MPH
gust
MPH
rain 1hr
in
rain 24hr
in
rain mn
in
humidity
%
barometer
mb
20260905220045 97 113 4.0 9.0 0.00 0.00 0.00 43 1011.4
20260905215523 98 100 4.0 9.0 0.00 0.00 0.00 42 1011.4
20260905215021 98 153 3.0 9.0 0.00 0.00 0.00 43 1011.3
20260905214546 98 122 3.0 9.0 0.00 0.00 0.00 43 1011.3
20260905214020 98 69 5.0 9.0 0.00 0.00 0.00 42 1011.3
20260905213518 98 155 3.0 10.0 0.00 0.00 0.00 43 1011.3
20260905213041 97 172 5.0 10.0 0.00 0.00 0.00 43 1011.5
20260905212524 97 191 0.0 8.0 0.00 0.00 0.00 43 1011.3
20260905212020 97 0 2.0 12.0 0.00 0.00 0.00 43 1011.5
20260905211544 97 111 5.0 12.0 0.00 0.00 0.00 43 1011.6
20260905211018 97 146 4.0 11.0 0.00 0.00 0.00 43 1011.6
20260905210520 98 127 4.0 12.0 0.00 0.00 0.00 42 1011.7
20260905210056 98 146 2.0 12.0 0.00 0.00 0.00 43 1011.8
20260905205524 98 117 6.0 12.0 0.00 0.00 0.00 41 1011.7
20260905205023 99 169 0.0 8.0 0.00 0.00 0.00 43 1011.9
20260905204550 98 192 0.0 8.0 0.00 0.00 0.00 42 1011.9
20260905204025 98 163 2.0 8.0 0.00 0.00 0.00 43 1012.2
20260905203526 98 75 1.0 10.0 0.00 0.00 0.00 43 1012.2
20260905203048 98 69 2.0 14.0 0.00 0.00 0.00 42 1012.2
20260905202525 98 128 5.0 14.0 0.00 0.00 0.00 42 1012.4
20260905202025 98 230 1.0 10.0 0.00 0.00 0.00 43 1012.4
20260905201548 98 294 3.0 11.0 0.00 0.00 0.00 43 1012.4
20260905201025 98 232 4.0 13.0 0.00 0.00 0.00 44 1012.4
20260905200523 97 145 6.0 13.0 0.00 0.00 0.00 45 1012.6
20260905200108 97 189 0.0 14.0 0.00 0.00 0.00 44 1012.7
20260905195521 96 162 3.0 14.0 0.00 0.00 0.00 47 1012.7
20260905195025 95 0 1.0 8.0 0.00 0.00 0.00 47 1012.8
20260905194549 95 339 2.0 10.0 0.00 0.00 0.00 45 1012.8
20260905194026 95 328 3.0 10.0 0.00 0.00 0.00 45 1012.9
20260905193524 95 198 3.0 7.0 0.00 0.00 0.00 45 1013.0
20260905193047 96 211 1.0 7.0 0.00 0.00 0.00 45 1013.0
20260905192525 96 146 2.0 8.0 0.00 0.00 0.00 46 1013.1
20260905192025 96 78 2.0 11.0 0.00 0.00 0.00 47 1013.3
20260905191544 95 127 5.0 11.0 0.00 0.00 0.00 46 1013.4
20260905191023 96 118 4.0 9.0 0.00 0.00 0.00 46 1013.5
20260905190524 97 207 2.0 13.0 0.00 0.00 0.00 45 1013.6
20260905190045 96 179 4.0 13.0 0.00 0.00 0.00 46 1013.7
20260905185522 96 148 6.0 13.0 0.00 0.00 0.00 47 1013.7
20260905185021 95 115 3.0 9.0 0.00 0.00 0.00 48 1013.7
20260905184551 95 47 4.0 8.0 0.00 0.00 0.00 47 1013.8
20260905184025 96 116 3.0 8.0 0.00 0.00 0.00 45 1013.9
20260905183526 96 0 2.0 8.0 0.00 0.00 0.00 46 1013.9
20260905183049 96 211 3.0 8.0 0.00 0.00 0.00 46 1014.0
20260905182525 96 72 3.0 7.0 0.00 0.00 0.00 45 1014.0
20260905182028 96 152 3.0 11.0 0.00 0.00 0.00 46 1014.1
20260905181548 95 147 6.0 13.0 0.00 0.00 0.00 45 1014.1
20260905181022 95 140 4.0 13.0 0.00 0.00 0.00 47 1014.1
20260905180524 96 147 3.0 10.0 0.00 0.00 0.00 47 1014.2
20260905180045 95 153 1.0 10.0 0.00 0.00 0.00 48 1014.4
20260905175526 95 207 1.0 7.0 0.00 0.00 0.00 47 1014.5
20260905175021 95 136 2.0 9.0 0.00 0.00 0.00 48 1014.5
20260905174542 95 163 3.0 9.0 0.00 0.00 0.00 48 1014.5
20260905174024 95 157 2.0 9.0 0.00 0.00 0.00 48 1014.7
20260905173524 95 198 4.0 9.0 0.00 0.00 0.00 47 1014.8
20260905173053 94 123 3.0 7.0 0.00 0.00 0.00 48 1014.8
20260905172525 94 175 3.0 8.0 0.00 0.00 0.00 48 1014.8
20260905172025 95 188 2.0 8.0 0.00 0.00 0.00 49 1014.7
20260905171547 94 124 1.0 9.0 0.00 0.00 0.00 51 1014.9
20260905171027 94 144 3.0 9.0 0.00 0.00 0.00 49 1014.9
20260905170523 94 140 1.0 5.0 0.00 0.00 0.00 49 1014.9
20260905170043 94 0 1.0 5.0 0.00 0.00 0.00 50 1015.0
20260905165522 93 0 0.0 7.0 0.00 0.00 0.00 53 1015.0
20260905165025 93 0 2.0 7.0 0.00 0.00 0.00 52 1015.0
20260905164545 93 195 1.0 8.0 0.00 0.00 0.00 52 1015.0
20260905164027 93 189 2.0 8.0 0.00 0.00 0.00 53 1015.1
20260905163524 93 201 0.0 6.0 0.00 0.00 0.00 53 1015.1
20260905163048 92 0 0.0 8.0 0.00 0.00 0.00 54 1015.0
20260905162524 92 0 1.0 8.0 0.00 0.00 0.00 54 1014.9
20260905162023 93 144 2.0 8.0 0.00 0.00 0.00 54 1015.1
20260905161547 92 0 0.0 2.0 0.00 0.00 0.00 54 1015.0
20260905161028 92 0 0.0 2.0 0.00 0.00 0.00 55 1015.0
20260905160523 92 0 0.0 4.0 0.00 0.00 0.00 56 1014.9
20260905160042 91 192 0.0 4.0 0.00 0.00 0.00 57 1015.0
20260905155521 91 192 1.0 7.0 0.00 0.00 0.00 57 1015.0
20260905155024 91 212 3.0 7.0 0.00 0.00 0.00 58 1015.1
20260905154545 91 0 1.0 5.0 0.00 0.00 0.00 58 1015.2
20260905154025 90 0 0.0 2.0 0.00 0.00 0.00 59 1015.1
20260905153526 90 0 0.0 2.0 0.00 0.00 0.00 60 1015.1
20260905153049 89 0 0.0 0.0 0.00 0.00 0.00 61 1015.0
20260905152528 89 0 0.0 4.0 0.00 0.00 0.00 64 1015.1
20260905152024 88 0 0.0 6.0 0.00 0.00 0.00 64 1015.2
20260905151555 88 211 1.0 7.0 0.00 0.00 0.00 65 1015.1
20260905151026 88 0 0.0 7.0 0.00 0.00 0.00 66 1015.1
20260905150526 87 217 2.0 7.0 0.00 0.00 0.00 65 1015.0
20260905150043 87 0 0.0 4.0 0.00 0.00 0.00 67 1015.1
20260905145518 87 0 0.0 7.0 0.00 0.00 0.00 69 1015.1
20260905145024 86 0 1.0 7.0 0.00 0.00 0.00 70 1015.1
20260905144549 85 215 2.0 7.0 0.00 0.00 0.00 69 1015.0
20260905144025 85 206 1.0 5.0 0.00 0.00 0.00 70 1014.9
20260905143525 85 216 1.0 4.0 0.00 0.00 0.00 71 1015.0
20260905143050 84 213 0.0 6.0 0.00 0.00 0.00 73 1015.0
20260905142530 84 0 0.0 6.0 0.00 0.00 0.00 74 1014.9
20260905142023 83 212 0.0 6.0 0.00 0.00 0.00 73 1014.9
20260905141546 83 0 0.0 0.0 0.00 0.00 0.00 74 1014.9
20260905141027 83 0 0.0 0.0 0.00 0.00 0.00 75 1015.0
20260905140524 82 0 0.0 0.0 0.00 0.00 0.00 75 1014.9
20260905140042 82 0 0.0 0.0 0.00 0.00 0.00 76 1014.9
20260905135527 81 0 0.0 0.0 0.00 0.00 0.00 77 1014.9
20260905135021 81 0 0.0 0.0 0.00 0.00 0.00 78 1014.8
20260905134541 81 0 0.0 0.0 0.00 0.00 0.00 78 1014.8
20260905134024 80 0 0.0 0.0 0.00 0.00 0.00 79 1014.9
20260905133525 80 0 0.0 0.0 0.00 0.00 0.00 80 1014.8
20260905133047 79 0 0.0 0.0 0.00 0.00 0.00 81 1014.8
20260905132524 79 0 0.0 0.0 0.00 0.00 0.00 81 1014.9
20260905132024 78 0 0.0 0.0 0.00 0.00 0.00 82 1014.9
20260905131556 78 0 0.0 0.0 0.00 0.00 0.00 84 1014.8
20260905131027 77 0 0.0 0.0 0.00 0.00 0.00 85 1014.8
20260905130522 76 0 0.0 0.0 0.00 0.00 0.00 85 1014.7
20260905130043 76 0 0.0 0.0 0.00 0.00 0.00 86 1014.5
20260905125522 75 0 0.0 0.0 0.00 0.00 0.00 86 1014.4
20260905125025 75 0 0.0 0.0 0.00 0.00 0.00 85 1014.5
20260905124553 75 0 0.0 0.0 0.00 0.00 0.00 85 1014.3
20260905124023 75 0 0.0 0.0 0.00 0.00 0.00 85 1014.4
20260905123526 75 0 0.0 0.0 0.00 0.00 0.00 85 1014.3
20260905123105 75 0 0.0 0.0 0.00 0.00 0.00 85 1014.3
20260905122521 75 0 0.0 0.0 0.00 0.00 0.00 85 1014.1
20260905122021 75 0 0.0 0.0 0.00 0.00 0.00 85 1014.1
20260905121544 75 0 0.0 0.0 0.00 0.00 0.00 85 1014.1
20260905121020 75 0 0.0 0.0 0.00 0.00 0.00 84 1014.1
20260905120525 75 0 0.0 0.0 0.00 0.00 0.00 84 1014.0
20260905120041 75 0 0.0 0.0 0.00 0.00 0.00 84 1014.0
20260905115528 76 0 0.0 0.0 0.00 0.00 0.00 83 1014.1
20260905115024 76 0 0.0 0.0 0.00 0.00 0.00 82 1013.9
20260905114549 76 0 0.0 0.0 0.00 0.00 0.00 82 1013.8
20260905114024 76 0 0.0 0.0 0.00 0.00 0.00 81 1013.8
20260905113524 77 0 0.0 0.0 0.00 0.00 0.00 81 1013.9
20260905113046 77 0 0.0 0.0 0.00 0.00 0.00 81 1013.8
20260905112522 77 0 0.0 0.0 0.00 0.00 0.00 81 1013.9
20260905112024 77 0 0.0 0.0 0.00 0.00 0.00 81 1013.9
20260905111549 77 0 0.0 0.0 0.00 0.00 0.00 80 1013.9
20260905111017 78 0 0.0 4.0 0.00 0.00 0.00 80 1013.9
20260905110521 78 0 0.0 5.0 0.00 0.00 0.00 80 1013.8
20260905110040 78 162 0.0 7.0 0.00 0.00 0.00 80 1013.8
20260905105524 78 138 3.0 8.0 0.00 0.00 0.00 80 1013.8
20260905105024 78 143 3.0 8.0 0.00 0.00 0.00 81 1013.8
20260905104547 77 0 0.0 0.0 0.00 0.00 0.00 82 1013.8
20260905104023 77 0 0.0 0.0 0.00 0.00 0.00 82 1013.7
20260905103524 77 0 0.0 0.0 0.00 0.00 0.00 82 1013.7
20260905103055 77 0 0.0 0.0 0.00 0.00 0.00 82 1013.7
20260905102521 77 0 0.0 0.0 0.00 0.00 0.00 82 1013.8
20260905102021 77 0 0.0 0.0 0.00 0.00 0.00 82 1013.8
20260905101542 77 0 0.0 0.0 0.00 0.00 0.00 82 1013.8
20260905101017 77 0 0.0 0.0 0.00 0.00 0.00 82 1013.8
20260905100524 77 0 0.0 0.0 0.00 0.00 0.00 82 1013.8
20260905100057 77 0 0.0 0.0 0.00 0.00 0.00 81 1013.8
20260905095524 77 0 0.0 0.0 0.00 0.00 0.00 81 1013.9
20260905095024 77 0 0.0 0.0 0.00 0.00 0.00 81 1013.8
20260905094550 77 0 0.0 0.0 0.00 0.00 0.00 80 1013.8
20260905094023 77 0 0.0 0.0 0.00 0.00 0.00 80 1013.9
20260905093522 78 0 0.0 0.0 0.00 0.00 0.00 79 1013.8
20260905093046 78 0 0.0 0.0 0.00 0.00 0.00 79 1013.8
20260905092521 78 0 0.0 0.0 0.00 0.00 0.00 78 1013.7
20260905092021 78 0 0.0 0.0 0.00 0.00 0.00 78 1013.8
20260905091549 78 0 0.0 0.0 0.00 0.00 0.00 78 1013.8
20260905091018 79 0 0.0 0.0 0.00 0.00 0.00 78 1013.7
20260905090517 79 0 0.0 0.0 0.00 0.00 0.00 78 1013.7
20260905090038 79 0 0.0 0.0 0.00 0.00 0.00 78 1013.6
20260905085524 79 0 0.0 0.0 0.00 0.00 0.00 78 1013.6
20260905085024 78 0 0.0 0.0 0.00 0.00 0.00 78 1013.6
20260905084603 78 0 0.0 0.0 0.00 0.00 0.00 78 1013.6
20260905084023 78 0 0.0 0.0 0.00 0.00 0.00 77 1013.6
20260905083530 79 0 0.0 0.0 0.00 0.00 0.00 77 1013.6
20260905083049 79 0 0.0 0.0 0.00 0.00 0.00 77 1013.6
20260905082523 79 0 0.0 0.0 0.00 0.00 0.00 77 1013.6
20260905082023 79 0 0.0 0.0 0.00 0.00 0.00 77 1013.5
20260905081541 79 0 0.0 0.0 0.00 0.00 0.00 76 1013.6
20260905081029 79 0 0.0 0.0 0.00 0.00 0.00 76 1013.5
20260905080520 80 0 0.0 0.0 0.00 0.00 0.00 75 1013.6
20260905080113 80 0 0.0 0.0 0.00 0.00 0.00 74 1013.6
20260905075524 80 0 0.0 0.0 0.00 0.00 0.00 73 1013.6
20260905075023 80 0 0.0 0.0 0.00 0.00 0.00 73 1013.6
20260905074549 81 0 0.0 0.0 0.00 0.00 0.00 73 1013.5
20260905074023 81 0 0.0 0.0 0.00 0.00 0.00 73 1013.5
20260905073523 81 0 0.0 0.0 0.00 0.00 0.00 73 1013.7
20260905073043 81 0 0.0 1.0 0.00 0.00 0.00 72 1013.6
20260905072526 81 0 0.0 1.0 0.00 0.00 0.00 72 1013.7
20260905072028 81 0 0.0 1.0 0.00 0.00 0.00 72 1013.7
20260905071542 81 0 0.0 0.0 0.00 0.00 0.00 71 1013.7
20260905071017 82 0 0.0 0.0 0.00 0.00 0.00 70 1013.8
20260905070523 82 0 0.0 0.0 0.00 0.00 0.00 69 1013.8
20260905070055 82 0 0.0 0.0 0.00 0.00 0.00 69 1013.8
20260905065527 83 0 0.0 0.0 0.00 0.00 0.00 68 1013.8
20260905065025 83 0 0.0 0.0 0.00 0.00 0.00 68 1013.8
20260905064553 83 0 0.0 0.0 0.00 0.00 0.00 67 1013.8
20260905064024 83 0 0.0 0.0 0.00 0.00 0.00 67 1013.9
20260905063522 83 0 0.0 0.0 0.00 0.00 0.00 67 1013.9
20260905063044 84 0 0.0 0.0 0.00 0.00 0.00 67 1013.8
20260905062524 84 0 0.0 0.0 0.00 0.00 0.00 66 1013.9
20260905062020 84 0 0.0 0.0 0.00 0.00 0.00 66 1013.8
20260905061541 84 0 0.0 0.0 0.00 0.00 0.00 66 1013.8
20260905061027 84 0 0.0 0.0 0.00 0.00 0.00 65 1013.8
20260905060524 84 0 0.0 0.0 0.00 0.00 0.00 65 1013.7
20260905060057 85 0 0.0 0.0 0.00 0.00 0.00 65 1013.7
20260905055524 85 0 0.0 0.0 0.00 0.00 0.00 64 1013.7
20260905055026 85 0 0.0 1.0 0.00 0.00 0.00 64 1013.8
20260905054553 85 0 0.0 3.0 0.00 0.00 0.00 63 1013.7
20260905054028 85 0 0.0 5.0 0.00 0.00 0.00 63 1013.8
20260905053523 86 0 0.0 5.0 0.00 0.00 0.00 63 1013.7
20260905053044 86 204 1.0 5.0 0.00 0.00 0.00 62 1013.6
20260905052523 86 185 2.0 5.0 0.00 0.00 0.00 62 1013.6
20260905052021 86 187 1.0 5.0 0.00 0.00 0.00 62 1013.5
20260905051552 86 0 1.0 7.0 0.00 0.00 0.00 62 1013.5
20260905051018 86 177 2.0 7.0 0.00 0.00 0.00 62 1013.5
20260905050519 86 173 1.0 7.0 0.00 0.00 0.00 62 1013.6
20260905050050 86 0 1.0 7.0 0.00 0.00 0.00 62 1013.5
20260905045524 86 174 1.0 8.0 0.00 0.00 0.00 62 1013.5
20260905045027 86 0 1.0 8.0 0.00 0.00 0.00 62 1013.4
20260905044549 86 160 1.0 8.0 0.00 0.00 0.00 61 1013.4
20260905044024 86 149 1.0 7.0 0.00 0.00 0.00 61 1013.5
20260905043524 86 165 2.0 8.0 0.00 0.00 0.00 60 1013.5
20260905043103 87 0 3.0 8.0 0.00 0.00 0.00 60 1013.4
20260905042526 87 143 2.0 8.0 0.00 0.00 0.00 59 1013.4
20260905042021 87 0 2.0 8.0 0.00 0.00 0.00 58 1013.4
20260905041543 87 144 3.0 9.0 0.00 0.00 0.00 58 1013.4
20260905041020 87 155 5.0 9.0 0.00 0.00 0.00 58 1013.3
20260905040521 87 146 5.0 9.0 0.00 0.00 0.00 58 1013.3
20260905040048 87 152 5.0 9.0 0.00 0.00 0.00 58 1013.3
20260905035523 87 146 4.0 8.0 0.00 0.00 0.00 57 1013.2
20260905035026 88 142 4.0 8.0 0.00 0.00 0.00 57 1013.3
20260905034543 88 146 3.0 7.0 0.00 0.00 0.00 57 1013.4
20260905034023 88 144 3.0 7.0 0.00 0.00 0.00 57 1013.4
20260905033522 88 141 3.0 7.0 0.00 0.00 0.00 56 1013.4
20260905033042 88 136 3.0 7.0 0.00 0.00 0.00 56 1013.4
20260905032521 88 120 4.0 8.0 0.00 0.00 0.00 56 1013.3
20260905032025 89 144 4.0 9.0 0.00 0.00 0.00 56 1013.1
20260905031544 89 144 4.0 10.0 0.00 0.00 0.00 55 1013.1
20260905031020 89 139 5.0 10.0 0.00 0.00 0.00 55 1013.1
20260905030521 89 137 5.0 10.0 0.00 0.00 0.00 55 1013.1
20260905030050 89 141 5.0 9.0 0.00 0.00 0.00 55 1013.2
20260905025521 89 144 5.0 10.0 0.00 0.00 0.00 55 1013.1
20260905025024 90 137 5.0 10.0 0.00 0.00 0.00 55 1013.0
20260905024547 90 134 4.0 8.0 0.00 0.00 0.00 55 1012.9
20260905024023 90 124 5.0 10.0 0.00 0.00 0.00 55 1012.8
20260905023531 90 140 5.0 10.0 0.00 0.00 0.00 54 1012.8
20260905023043 90 146 5.0 9.0 0.00 0.00 0.00 54 1012.8
20260905022526 90 123 4.0 11.0 0.00 0.00 0.00 54 1012.8
20260905022026 90 144 5.0 11.0 0.00 0.00 0.00 54 1012.8
20260905021546 91 138 6.0 10.0 0.00 0.00 0.00 54 1012.5
20260905021019 91 159 5.0 11.0 0.00 0.00 0.00 54 1012.5
20260905020524 91 135 7.0 11.0 0.00 0.00 0.00 54 1012.5
20260905020053 91 134 6.0 13.0 0.00 0.00 0.00 54 1012.4
20260905015520 91 119 6.0 13.0 0.00 0.00 0.00 54 1012.4
20260905015023 91 161 5.0 11.0 0.00 0.00 0.00 53 1012.2
20260905014547 91 134 6.0 11.0 0.00 0.00 0.00 53 1012.1
20260905014026 91 107 6.0 11.0 0.00 0.00 0.00 53 1012.0
20260905013522 92 137 6.0 11.0 0.00 0.00 0.00 53 1012.0
20260905013043 92 115 5.0 12.0 0.00 0.00 0.00 53 1012.0
20260905012523 92 123 6.0 12.0 0.00 0.00 0.00 52 1011.9
20260905012022 92 133 5.0 11.0 0.00 0.00 0.00 52 1011.7
20260905011606 92 137 5.0 12.0 0.00 0.00 0.00 52 1011.7
20260905011020 92 140 5.0 12.0 0.00 0.00 0.00 51 1011.7
20260905010519 93 113 5.0 12.0 0.00 0.00 0.00 51 1011.7
20260905010044 93 104 5.0 10.0 0.00 0.00 0.00 50 1011.7
20260905005521 93 139 4.0 11.0 0.00 0.00 0.00 50 1011.6
20260905005021 93 118 5.0 11.0 0.00 0.00 0.00 49 1011.5
20260905004550 94 124 5.0 10.0 0.00 0.00 0.00 48 1011.4
20260905004024 94 130 5.0 11.0 0.00 0.00 0.00 47 1011.4
20260905003523 94 130 5.0 11.0 0.00 0.00 0.00 46 1011.4
20260905003053 94 136 6.0 12.0 0.00 0.00 0.00 46 1011.2
20260905002526 95 137 6.0 12.0 0.00 0.00 0.00 46 1011.1
20260905002022 95 156 5.0 12.0 0.00 0.00 0.00 46 1011.2
20260905001546 95 155 8.0 12.0 0.00 0.00 0.00 46 1011.1
20260905001022 95 137 6.0 12.0 0.00 0.00 0.00 46 1011.1
20260905000521 95 125 7.0 12.0 0.00 0.00 0.00 46 1011.0
20260905000049 95 123 5.0 11.0 0.00 0.00 0.00 46 1011.1
20260904235525 96 123 4.0 15.0 0.00 0.00 0.00 46 1011.0
20260904235025 95 146 4.0 15.0 0.00 0.00 0.00 46 1011.0
20260904234550 96 125 8.0 15.0 0.00 0.00 0.00 46 1011.0
20260904234024 96 109 6.0 11.0 0.00 0.00 0.00 46 1011.0
20260904233523 96 129 4.0 14.0 0.00 0.00 0.00 46 1011.2
20260904233055 96 171 3.0 15.0 0.00 0.00 0.00 47 1011.1
20260904232526 96 142 8.0 15.0 0.00 0.00 0.00 46 1011.1
20260904232019 96 165 7.0 15.0 0.00 0.00 0.00 46 1011.0
20260904231543 96 144 9.0 15.0 0.00 0.00 0.00 46 1011.1
20260904231022 96 176 9.0 14.0 0.00 0.00 0.00 46 1011.0
20260904230518 96 137 7.0 14.0 0.00 0.00 0.00 46 1011.0
20260904230045 96 136 7.0 14.0 0.00 0.00 0.00 46 1011.1
20260904225522 96 101 5.0 14.0 0.00 0.00 0.00 46 1011.1
20260904225020 97 138 8.0 14.0 0.00 0.00 0.00 45 1011.3
20260904224541 97 158 2.0 11.0 0.00 0.00 0.00 45 1011.2
20260904224024 97 174 4.0 11.0 0.00 0.00 0.00 45 1011.2
20260904223524 97 194 3.0 13.0 0.00 0.00 0.00 46 1011.2
20260904223047 97 182 7.0 14.0 0.00 0.00 0.00 45 1011.3
20260904222522 97 113 6.0 14.0 0.00 0.00 0.00 45 1011.3
20260904222021 97 122 8.0 14.0 0.00 0.00 0.00 45 1011.2
20260904221541 97 134 7.0 16.0 0.00 0.00 0.00 46 1011.3
20260904221021 97 157 7.0 16.0 0.00 0.00 0.00 45 1011.4
20260904220520 97 119 4.0 16.0 0.00 0.00 0.00 46 1011.3